Time,TemperatureF,DewpointF,PressureIn,WindDirection,WindDirectionDegrees,WindSpeedMPH,WindSpeedGustMPH,Humidity,HourlyPrecipIn,Conditions,Clouds,dailyrainin,SoftwareType,DateUTC
2013-02-17 00:00:00,35.4,28.0,29.93,South,176,5.0,16.0,74,0.00,,,0.03,VWS V14.01,2013-02-17 07:00:00,
2013-02-17 00:05:00,35.4,27.6,29.93,SW,217,5.0,9.0,73,0.00,,,0.00,VWS V14.01,2013-02-17 07:05:00,
2013-02-17 00:10:00,35.4,27.6,29.93,South,183,2.0,9.0,73,0.00,,,0.00,VWS V14.01,2013-02-17 07:10:00,
2013-02-17 00:15:00,35.2,27.8,29.93,South,183,0.0,9.0,74,0.00,,,0.00,VWS V14.01,2013-02-17 07:15:00,
2013-02-17 00:20:00,34.8,27.4,29.93,South,183,0.0,9.0,74,0.00,,,0.00,VWS V14.01,2013-02-17 07:20:00,
2013-02-17 00:25:00,34.4,27.0,29.93,South,183,0.0,9.0,74,0.00,,,0.00,VWS V14.01,2013-02-17 07:25:00,
2013-02-17 00:30:00,34.1,27.0,29.94,SW,226,3.0,9.0,75,0.00,,,0.00,VWS V14.01,2013-02-17 07:30:00,
2013-02-17 00:35:00,34.3,27.2,29.93,SW,226,4.0,4.0,75,0.00,,,0.00,VWS V14.01,2013-02-17 07:35:00,
2013-02-17 00:40:00,34.1,27.0,29.93,SW,223,4.0,7.0,75,0.00,,,0.00,VWS V14.01,2013-02-17 07:40:00,
2013-02-17 00:45:00,34.1,26.7,29.93,SSW,199,7.0,7.0,74,0.00,,,0.00,VWS V14.01,2013-02-17 07:45:00,
2013-02-17 00:50:00,34.4,26.7,29.93,SSW,213,6.0,8.0,73,0.00,,,0.00,VWS V14.01,2013-02-17 07:50:00,
2013-02-17 00:55:00,34.4,26.3,29.93,SSW,205,8.0,10.0,72,0.00,,,0.00,VWS V14.01,2013-02-17 07:55:00,
2013-02-17 01:00:00,34.8,26.4,29.93,South,177,8.0,12.0,71,0.00,,,0.00,VWS V14.01,2013-02-17 08:00:00,
2013-02-17 01:05:00,35.4,25.9,29.92,South,169,17.0,18.0,68,0.00,,,0.00,VWS V14.01,2013-02-17 08:05:00,
2013-02-17 01:10:00,35.7,25.8,29.92,South,180,9.0,19.0,67,0.00,,,0.00,VWS V14.01,2013-02-17 08:10:00,
2013-02-17 01:15:00,35.8,25.6,29.92,SSE,161,10.0,19.0,66,0.00,,,0.00,VWS V14.01,2013-02-17 08:15:00,
2013-02-17 01:20:00,35.6,25.7,29.93,SSW,209,14.0,19.0,67,0.00,,,0.00,VWS V14.01,2013-02-17 08:20:00,
2013-02-17 01:25:00,35.5,25.6,29.93,SSW,205,9.0,19.0,67,0.00,,,0.00,VWS V14.01,2013-02-17 08:25:00,
2013-02-17 01:30:00,35.5,25.6,29.93,SSW,209,11.0,19.0,67,0.00,,,0.00,VWS V14.01,2013-02-17 08:30:00,
2013-02-17 01:35:00,35.4,25.9,29.93,WSW,237,11.0,15.0,68,0.00,,,0.00,VWS V14.01,2013-02-17 08:35:00,
2013-02-17 01:40:00,35.2,25.7,29.92,SSW,197,16.0,17.0,68,0.00,,,0.00,VWS V14.01,2013-02-17 08:40:00,
2013-02-17 01:45:00,35.1,25.6,29.92,SSW,196,7.0,17.0,68,0.00,,,0.00,VWS V14.01,2013-02-17 08:45:00,
2013-02-17 01:50:00,35.0,25.9,29.92,South,177,13.0,17.0,69,0.00,,,0.00,VWS V14.01,2013-02-17 08:50:00,
2013-02-17 01:55:00,35.0,25.9,29.92,SSW,204,9.0,17.0,69,0.00,,,0.00,VWS V14.01,2013-02-17 08:55:00,
2013-02-17 02:00:00,34.5,25.7,29.92,South,173,6.0,17.0,70,0.00,,,0.00,VWS V14.01,2013-02-17 09:00:00,
2013-02-17 02:05:00,34.4,25.6,29.92,South,184,6.0,10.0,70,0.00,,,0.00,VWS V14.01,2013-02-17 09:05:00,
2013-02-17 02:10:00,34.4,26.0,29.92,South,173,13.0,15.0,71,0.00,,,0.00,VWS V14.01,2013-02-17 09:10:00,
2013-02-17 02:15:00,34.4,25.6,29.93,SW,219,8.0,15.0,70,0.00,,,0.00,VWS V14.01,2013-02-17 09:15:00,
2013-02-17 02:20:00,34.5,25.7,29.93,SSW,206,4.0,16.0,70,0.00,,,0.00,VWS V14.01,2013-02-17 09:20:00,
2013-02-17 02:25:00,34.4,25.6,29.93,SSW,198,8.0,16.0,70,0.00,,,0.00,VWS V14.01,2013-02-17 09:25:00,
2013-02-17 02:30:00,34.5,25.7,29.93,South,173,9.0,16.0,70,0.00,,,0.00,VWS V14.01,2013-02-17 09:30:00,
2013-02-17 02:35:00,34.4,26.0,29.93,SW,221,13.0,17.0,71,0.00,,,0.00,VWS V14.01,2013-02-17 09:35:00,
2013-02-17 02:40:00,34.4,26.0,29.94,SSW,207,13.0,19.0,71,0.00,,,0.00,VWS V14.01,2013-02-17 09:40:00,
2013-02-17 02:45:00,34.4,26.3,29.94,SSW,194,20.0,20.0,72,0.00,,,0.00,VWS V14.01,2013-02-17 09:45:00,
2013-02-17 02:50:00,34.3,26.2,29.94,South,190,8.0,20.0,72,0.00,,,0.00,VWS V14.01,2013-02-17 09:50:00,
2013-02-17 02:55:00,34.3,26.2,29.94,SSW,199,10.0,21.0,72,0.00,,,0.00,VWS V14.01,2013-02-17 09:55:00,
2013-02-17 03:00:00,34.3,26.2,29.94,South,189,14.0,21.0,72,0.00,,,0.00,VWS V14.01,2013-02-17 10:00:00,
2013-02-17 03:05:00,34.2,26.1,29.94,SSW,192,21.0,21.0,72,0.00,,,0.00,VWS V14.01,2013-02-17 10:05:00,
2013-02-17 03:10:00,34.2,26.1,29.94,SW,219,15.0,22.0,72,0.00,,,0.00,VWS V14.01,2013-02-17 10:10:00,
2013-02-17 03:15:00,34.0,26.3,29.94,SSW,208,14.0,22.0,73,0.00,,,0.00,VWS V14.01,2013-02-17 10:15:00,
2013-02-17 03:20:00,33.9,26.2,29.94,SSW,209,12.0,22.0,73,0.00,,,0.00,VWS V14.01,2013-02-17 10:20:00,
2013-02-17 03:25:00,33.9,26.2,29.94,South,189,11.0,22.0,73,0.00,,,0.00,VWS V14.01,2013-02-17 10:25:00,
2013-02-17 03:30:00,33.9,26.2,29.94,South,191,9.0,22.0,73,0.00,,,0.00,VWS V14.01,2013-02-17 10:30:00,
2013-02-17 03:35:00,33.8,26.1,29.94,SSW,192,9.0,15.0,73,0.00,,,0.00,VWS V14.01,2013-02-17 10:35:00,
2013-02-17 03:40:00,33.9,26.2,29.93,South,188,11.0,16.0,73,0.00,,,0.00,VWS V14.01,2013-02-17 10:40:00,
2013-02-17 03:45:00,33.9,26.2,29.93,South,178,11.0,18.0,73,0.00,,,0.00,VWS V14.01,2013-02-17 10:45:00,
2013-02-17 03:50:00,33.9,25.8,29.93,SSE,159,11.0,18.0,72,0.00,,,0.00,VWS V14.01,2013-02-17 10:50:00,
2013-02-17 03:55:00,33.9,25.8,29.93,South,175,10.0,18.0,72,0.00,,,0.00,VWS V14.01,2013-02-17 10:55:00,
2013-02-17 04:00:00,33.8,26.1,29.93,South,184,14.0,18.0,73,0.00,,,0.00,VWS V14.01,2013-02-17 11:00:00,
2013-02-17 04:05:00,33.7,26.0,29.93,SSE,162,13.0,17.0,73,0.00,,,0.00,VWS V14.01,2013-02-17 11:05:00,
2013-02-17 04:10:00,33.7,26.0,29.93,SSE,159,12.0,17.0,73,0.00,,,0.00,VWS V14.01,2013-02-17 11:10:00,
2013-02-17 04:15:00,33.6,25.9,29.93,SSE,155,9.0,18.0,73,0.00,,,0.00,VWS V14.01,2013-02-17 11:15:00,
2013-02-17 04:20:00,33.6,25.9,29.93,SSE,164,9.0,18.0,73,0.00,,,0.00,VWS V14.01,2013-02-17 11:20:00,
2013-02-17 04:25:00,33.5,25.8,29.93,SE,146,11.0,19.0,73,0.00,,,0.00,VPLive 1.2.5.27,2013-02-17 11:25:00,
2013-02-17 04:30:00,33.4,25.7,29.94,South,169,14.0,19.0,73,0.00,,,0.00,VWS V14.01,2013-02-17 11:30:00,
2013-02-17 04:35:00,33.4,25.7,29.94,SSW,202,7.0,15.0,73,0.00,,,0.00,VWS V14.01,2013-02-17 11:35:00,
2013-02-17 04:40:00,33.4,25.7,29.93,SSE,159,10.0,17.0,73,0.00,,,0.00,VWS V14.01,2013-02-17 11:40:00,
2013-02-17 04:45:00,33.4,25.7,29.93,South,171,11.0,17.0,73,0.00,,,0.00,VWS V14.01,2013-02-17 11:45:00,
2013-02-17 04:50:00,33.5,25.5,29.93,SSE,163,9.0,17.0,72,0.00,,,0.00,VWS V14.01,2013-02-17 11:50:00,
2013-02-17 04:55:00,33.6,25.5,29.93,South,171,9.0,20.0,72,0.00,,,0.00,VWS V14.01,2013-02-17 11:55:00,
2013-02-17 05:00:00,33.7,25.0,29.93,South,177,13.0,20.0,70,0.00,,,0.00,VWS V14.01,2013-02-17 12:00:00,
2013-02-17 05:05:00,33.8,25.1,29.93,SSE,167,10.0,19.0,70,0.00,,,0.00,VWS V14.01,2013-02-17 12:05:00,
2013-02-17 05:10:00,33.7,25.0,29.94,SSW,208,9.0,19.0,70,0.00,,,0.00,VWS V14.01,2013-02-17 12:10:00,
2013-02-17 05:15:00,33.8,24.7,29.94,South,185,12.0,23.0,69,0.00,,,0.00,VWS V14.01,2013-02-17 12:15:00,
2013-02-17 05:20:00,33.8,25.1,29.94,SSW,192,12.0,23.0,70,0.00,,,0.00,VWS V14.01,2013-02-17 12:20:00,
2013-02-17 05:25:00,33.8,24.7,29.95,South,189,12.0,23.0,69,0.00,,,0.00,VWS V14.01,2013-02-17 12:25:00,
2013-02-17 05:30:00,33.8,24.7,29.95,SSW,192,12.0,23.0,69,0.00,,,0.00,VWS V14.01,2013-02-17 12:30:00,
2013-02-17 05:35:00,33.9,24.5,29.95,South,183,9.0,18.0,68,0.00,,,0.00,VWS V14.01,2013-02-17 12:35:00,
2013-02-17 05:40:00,33.9,24.8,29.95,SSW,202,9.0,18.0,69,0.00,,,0.00,VWS V14.01,2013-02-17 12:40:00,
2013-02-17 05:45:00,33.8,24.7,29.95,SSW,211,12.0,18.0,69,0.00,,,0.00,VWS V14.01,2013-02-17 12:45:00,
2013-02-17 05:50:00,33.9,24.5,29.95,South,189,11.0,18.0,68,0.00,,,0.00,VWS V14.01,2013-02-17 12:50:00,
2013-02-17 05:55:00,33.9,24.5,29.95,SW,214,8.0,18.0,68,0.00,,,0.00,VWS V14.01,2013-02-17 12:55:00,
2013-02-17 06:00:00,33.8,24.7,29.95,SSW,208,8.0,18.0,69,0.00,,,0.00,VWS V14.01,2013-02-17 13:00:00,
2013-02-17 06:05:00,33.8,24.7,29.95,SSW,192,8.0,13.0,69,0.00,,,0.00,VWS V14.01,2013-02-17 13:05:00,
2013-02-17 06:10:00,33.7,24.6,29.95,South,184,9.0,13.0,69,0.00,,,0.00,VWS V14.01,2013-02-17 13:10:00,
2013-02-17 06:15:00,33.7,24.6,29.95,South,182,5.0,13.0,69,0.00,,,0.00,VWS V14.01,2013-02-17 13:15:00,
2013-02-17 06:20:00,33.6,24.2,29.95,South,180,6.0,13.0,68,0.00,,,0.00,VWS V14.01,2013-02-17 13:20:00,
2013-02-17 06:25:00,33.6,24.2,29.96,South,177,6.0,13.0,68,0.00,,,0.00,VWS V14.01,2013-02-17 13:25:00,
2013-02-17 06:30:00,33.5,24.4,29.96,South,190,9.0,13.0,69,0.00,,,0.00,VWS V14.01,2013-02-17 13:30:00,
2013-02-17 06:35:00,33.5,24.4,29.96,South,189,7.0,12.0,69,0.00,,,0.00,VWS V14.01,2013-02-17 13:35:00,
2013-02-17 06:40:00,33.5,24.4,29.96,SSW,207,8.0,12.0,69,0.00,,,0.00,VWS V14.01,2013-02-17 13:40:00,
2013-02-17 06:45:00,33.6,24.5,29.96,South,176,8.0,12.0,69,0.00,,,0.00,VWS V14.01,2013-02-17 13:45:00,
2013-02-17 06:50:00,33.5,24.4,29.96,SSW,193,11.0,12.0,69,0.00,,,0.00,VWS V14.01,2013-02-17 13:50:00,
2013-02-17 06:55:00,33.5,24.4,29.96,SSW,203,14.0,15.0,69,0.00,,,0.00,VWS V14.01,2013-02-17 13:55:00,
2013-02-17 07:00:00,33.4,24.3,29.96,SSW,197,11.0,19.0,69,0.00,,,0.00,VWS V14.01,2013-02-17 14:00:00,
2013-02-17 07:05:00,33.5,24.4,29.96,SSW,194,14.0,17.0,69,0.00,,,0.00,VWS V14.01,2013-02-17 14:05:00,
2013-02-17 07:10:00,33.3,24.6,29.96,South,184,9.0,17.0,70,0.00,,,0.00,VWS V14.01,2013-02-17 14:10:00,
2013-02-17 07:15:00,33.2,24.8,29.96,SSE,161,9.0,17.0,71,0.00,,,0.00,VWS V14.01,2013-02-17 14:15:00,
2013-02-17 07:20:00,33.1,24.7,29.96,SSW,197,14.0,19.0,71,0.00,,,0.00,VWS V14.01,2013-02-17 14:20:00,
2013-02-17 07:25:00,33.2,24.8,29.96,South,188,9.0,19.0,71,0.00,,,0.00,VWS V14.01,2013-02-17 14:25:00,
2013-02-17 07:30:00,33.0,24.6,29.96,SSW,200,6.0,19.0,71,0.00,,,0.00,VWS V14.01,2013-02-17 14:30:00,
2013-02-17 07:35:00,33.0,24.6,29.96,SSW,198,8.0,13.0,71,0.00,,,0.00,VWS V14.01,2013-02-17 14:35:00,
2013-02-17 07:40:00,33.0,24.6,29.96,SSW,200,5.0,13.0,71,0.00,,,0.00,VWS V14.01,2013-02-17 14:40:00,
2013-02-17 07:45:00,33.0,25.0,29.96,South,189,9.0,13.0,72,0.00,,,0.00,VWS V14.01,2013-02-17 14:45:00,
2013-02-17 07:50:00,33.0,25.0,29.96,South,186,7.0,14.0,72,0.00,,,0.00,VWS V14.01,2013-02-17 14:50:00,
2013-02-17 07:55:00,32.9,24.9,29.96,South,182,6.0,14.0,72,0.00,,,0.00,VWS V14.01,2013-02-17 14:55:00,
2013-02-17 08:00:00,32.9,24.9,29.96,South,169,8.0,14.0,72,0.00,,,0.00,VWS V14.01,2013-02-17 15:00:00,
2013-02-17 08:05:00,33.0,25.0,29.97,SSW,198,6.0,13.0,72,0.00,,,0.00,VWS V14.01,2013-02-17 15:05:00,
2013-02-17 08:10:00,33.0,25.0,29.97,SSW,193,9.0,13.0,72,0.00,,,0.00,VWS V14.01,2013-02-17 15:10:00,
2013-02-17 08:15:00,33.0,25.0,29.97,South,181,11.0,15.0,72,0.00,,,0.00,VWS V14.01,2013-02-17 15:15:00,
2013-02-17 08:20:00,33.1,25.4,29.97,South,186,9.0,15.0,73,0.00,,,0.00,VWS V14.01,2013-02-17 15:20:00,
2013-02-17 08:25:00,33.1,25.4,29.97,SW,221,8.0,16.0,73,0.00,,,0.00,VWS V14.01,2013-02-17 15:25:00,
2013-02-17 08:30:00,33.2,25.5,29.97,SSW,207,4.0,16.0,73,0.00,,,0.00,VWS V14.01,2013-02-17 15:30:00,
2013-02-17 08:35:00,33.2,25.5,29.98,SW,221,8.0,15.0,73,0.00,,,0.00,VWS V14.01,2013-02-17 15:35:00,
2013-02-17 08:40:00,33.2,25.5,29.98,South,188,9.0,15.0,73,0.00,,,0.00,VWS V14.01,2013-02-17 15:40:00,
2013-02-17 08:45:00,33.1,25.4,29.98,SSW,211,8.0,15.0,73,0.00,,,0.00,VWS V14.01,2013-02-17 15:45:00,
2013-02-17 08:50:00,33.1,25.7,29.98,SSW,199,12.0,15.0,74,0.00,,,0.00,VWS V14.01,2013-02-17 15:50:00,
2013-02-17 08:55:00,33.1,25.7,29.99,SSW,197,11.0,15.0,74,0.00,,,0.00,VWS V14.01,2013-02-17 15:55:00,
2013-02-17 09:00:00,33.1,26.0,29.99,SSW,192,11.0,16.0,75,0.00,,,0.00,VWS V14.01,2013-02-17 16:00:00,
2013-02-17 09:05:00,33.0,26.0,29.99,SSW,198,8.0,14.0,75,0.00,,,0.00,VWS V14.01,2013-02-17 16:05:00,
2013-02-17 09:10:00,32.9,26.2,29.99,SW,214,9.0,14.0,76,0.00,,,0.00,VWS V14.01,2013-02-17 16:10:00,
2013-02-17 09:15:00,32.8,26.1,29.99,SSW,207,8.0,14.0,76,0.00,,,0.00,VWS V14.01,2013-02-17 16:15:00,
2013-02-17 09:20:00,32.8,26.1,29.99,SSW,206,6.0,14.0,76,0.00,,,0.00,VWS V14.01,2013-02-17 16:20:00,
2013-02-17 09:25:00,32.9,26.2,29.99,SSW,200,10.0,14.0,76,0.00,,,0.00,VWS V14.01,2013-02-17 16:25:00,
2013-02-17 09:30:00,32.9,26.5,29.99,SSW,205,10.0,14.0,77,0.00,,,0.00,VWS V14.01,2013-02-17 16:30:00,
2013-02-17 09:35:00,33.0,26.6,29.99,SW,215,6.0,11.0,77,0.00,,,0.00,VWS V14.01,2013-02-17 16:35:00,
2013-02-17 09:40:00,33.1,26.7,30.00,SSW,200,7.0,12.0,77,0.00,,,0.00,VWS V14.01,2013-02-17 16:40:00,
2013-02-17 09:45:00,33.1,26.7,30.00,SSE,162,8.0,12.0,77,0.00,,,0.00,VWS V14.01,2013-02-17 16:45:00,
2013-02-17 09:50:00,33.1,26.7,30.00,SSW,202,9.0,12.0,77,0.00,,,0.00,VWS V14.01,2013-02-17 16:50:00,
2013-02-17 09:55:00,33.1,26.7,30.00,SSW,213,12.0,15.0,77,0.00,,,0.00,VWS V14.01,2013-02-17 16:55:00,
2013-02-17 10:00:00,33.0,26.6,30.00,SSW,197,12.0,15.0,77,0.00,,,0.00,VWS V14.01,2013-02-17 17:00:00,
2013-02-17 10:05:00,33.0,26.6,30.00,SSW,196,11.0,15.0,77,0.00,,,0.00,VWS V14.01,2013-02-17 17:05:00,
2013-02-17 10:10:00,33.0,26.9,30.00,SW,223,10.0,15.0,78,0.00,,,0.00,VWS V14.01,2013-02-17 17:10:00,
2013-02-17 10:15:00,33.1,26.7,30.00,SW,215,9.0,15.0,77,0.00,,,0.00,VWS V14.01,2013-02-17 17:15:00,
2013-02-17 10:20:00,33.2,26.8,30.00,SSW,207,9.0,15.0,77,0.00,,,0.00,VWS V14.01,2013-02-17 17:20:00,
2013-02-17 10:25:00,33.2,27.1,30.00,SSW,213,12.0,16.0,78,0.00,,,0.00,VWS V14.01,2013-02-17 17:25:00,
2013-02-17 10:30:00,33.2,27.1,30.00,SW,218,9.0,16.0,78,0.00,,,0.00,VWS V14.01,2013-02-17 17:30:00,
2013-02-17 10:35:00,33.0,27.5,30.00,SW,224,10.0,14.0,80,0.00,,,0.00,VWS V14.01,2013-02-17 17:35:00,
2013-02-17 10:40:00,32.6,27.4,30.00,SW,215,9.0,14.0,81,0.00,,,0.00,VWS V14.01,2013-02-17 17:40:00,
2013-02-17 10:45:00,32.2,27.6,30.00,SSW,202,8.0,15.0,83,0.00,,,0.00,VWS V14.01,2013-02-17 17:45:00,
2013-02-17 10:50:00,32.1,27.8,30.01,SSW,205,11.0,15.0,84,0.00,,,0.00,VWS V14.01,2013-02-17 17:50:00,
2013-02-17 10:55:00,32.1,28.1,30.00,South,182,6.0,15.0,85,0.00,,,0.00,VWS V14.01,2013-02-17 17:55:00,
2013-02-17 11:00:00,32.2,28.2,30.01,South,174,14.0,15.0,85,0.00,,,0.00,VWS V14.01,2013-02-17 18:00:00,
2013-02-17 11:05:00,32.2,28.5,30.00,SSE,157,6.0,11.0,86,0.00,,,0.00,VWS V14.01,2013-02-17 18:05:00,
2013-02-17 11:10:00,32.1,28.4,30.00,SSW,199,7.0,13.0,86,0.00,,,0.00,VWS V14.01,2013-02-17 18:10:00,
2013-02-17 11:16:00,32.2,28.5,30.01,South,175,9.0,13.0,86,0.00,,,0.00,VWS V14.01,2013-02-17 18:16:00,
2013-02-17 11:21:00,32.2,28.5,30.01,SSE,168,10.0,13.0,86,0.00,,,0.00,VWS V14.01,2013-02-17 18:21:00,
2013-02-17 11:26:00,32.3,28.6,30.01,South,186,9.0,14.0,86,0.00,,,0.00,VPLive 1.2.5.27,2013-02-17 18:26:00,
2013-02-17 11:31:00,32.5,28.8,30.01,SSE,160,8.0,14.0,86,0.00,,,0.00,VWS V14.01,2013-02-17 18:31:00,
2013-02-17 11:36:00,32.6,28.6,30.01,South,173,10.0,12.0,85,0.00,,,0.00,VWS V14.01,2013-02-17 18:36:00,
2013-02-17 11:41:00,32.8,29.1,30.01,SSE,162,9.0,13.0,86,0.00,,,0.00,VWS V14.01,2013-02-17 18:41:00,
2013-02-17 11:46:00,32.6,28.9,30.02,SSW,203,6.0,13.0,86,0.00,,,0.00,VWS V14.01,2013-02-17 18:46:00,
2013-02-17 11:51:00,32.5,28.8,30.01,SSW,192,8.0,13.0,86,0.00,,,0.00,VWS V14.01,2013-02-17 18:51:00,
2013-02-17 11:56:00,32.5,29.1,30.02,South,174,5.0,13.0,87,0.00,,,0.00,VWS V14.01,2013-02-17 18:56:00,
2013-02-17 12:01:00,32.4,29.0,30.01,South,185,9.0,15.0,87,0.00,,,0.00,VWS V14.01,2013-02-17 19:01:00,
2013-02-17 12:06:00,32.3,29.1,30.02,South,178,8.0,12.0,88,0.00,,,0.00,VWS V14.01,2013-02-17 19:06:00,
2013-02-17 12:11:00,32.5,29.4,30.01,SSW,209,6.0,12.0,88,0.00,,,0.00,VWS V14.01,2013-02-17 19:11:00,
2013-02-17 12:16:00,32.8,29.6,30.01,SW,219,9.0,12.0,88,0.00,,,0.00,VWS V14.01,2013-02-17 19:16:00,
2013-02-17 12:21:00,32.9,29.7,30.01,SSW,204,15.0,15.0,88,0.00,,,0.00,VWS V14.01,2013-02-17 19:21:00,
2013-02-17 12:26:00,32.7,29.3,30.01,SSW,193,11.0,16.0,87,0.00,,,0.00,VWS V14.01,2013-02-17 19:26:00,
2013-02-17 12:31:00,32.6,29.2,30.01,South,190,9.0,17.0,87,0.00,,,0.00,VWS V14.01,2013-02-17 19:31:00,
2013-02-17 12:36:00,32.4,29.0,30.01,SSW,207,12.0,16.0,87,0.00,,,0.00,VWS V14.01,2013-02-17 19:36:00,
2013-02-17 12:41:00,32.2,28.8,30.01,SSW,200,7.0,16.0,87,0.00,,,0.00,VWS V14.01,2013-02-17 19:41:00,
2013-02-17 12:46:00,32.2,29.0,30.01,South,190,11.0,16.0,88,0.00,,,0.00,VWS V14.01,2013-02-17 19:46:00,
2013-02-17 12:51:00,32.2,29.0,30.01,SSE,161,11.0,16.0,88,0.00,,,0.00,VWS V14.01,2013-02-17 19:51:00,
2013-02-17 12:56:00,32.2,29.0,30.01,South,171,8.0,16.0,88,0.01,,,0.01,VWS V14.01,2013-02-17 19:56:00,
2013-02-17 13:01:00,32.2,29.0,30.01,SSW,197,7.0,16.0,88,0.01,,,0.01,VWS V14.01,2013-02-17 20:01:00,
2013-02-17 13:06:00,32.3,29.1,30.01,SSW,196,9.0,12.0,88,0.01,,,0.01,VWS V14.01,2013-02-17 20:06:00,
2013-02-17 13:11:00,32.4,29.2,30.01,SSW,209,8.0,15.0,88,0.01,,,0.01,VWS V14.01,2013-02-17 20:11:00,
2013-02-17 13:16:00,32.8,29.6,30.01,SSW,192,8.0,15.0,88,0.01,,,0.01,VWS V14.01,2013-02-17 20:16:00,
2013-02-17 13:21:00,33.1,29.9,30.01,SSW,194,11.0,15.0,88,0.01,,,0.01,VWS V14.01,2013-02-17 20:21:00,
2013-02-17 13:26:00,33.5,30.0,30.01,South,179,12.0,16.0,87,0.01,,,0.01,VWS V14.01,2013-02-17 20:26:00,
2013-02-17 13:31:00,33.6,30.1,30.01,South,178,11.0,16.0,87,0.01,,,0.01,VWS V14.01,2013-02-17 20:31:00,
2013-02-17 13:36:00,33.7,29.7,30.01,SW,215,11.0,20.0,85,0.01,,,0.01,VWS V14.01,2013-02-17 20:36:00,
2013-02-17 13:41:00,33.9,30.2,30.01,South,187,11.0,20.0,86,0.01,,,0.01,VWS V14.01,2013-02-17 20:41:00,
2013-02-17 13:46:00,34.2,30.5,30.01,SSW,201,9.0,20.0,86,0.01,,,0.01,VWS V14.01,2013-02-17 20:46:00,
2013-02-17 13:51:00,34.4,30.4,30.01,SSW,209,11.0,20.0,85,0.01,,,0.01,VWS V14.01,2013-02-17 20:51:00,
2013-02-17 13:56:00,34.4,30.1,30.01,South,178,11.0,20.0,84,0.01,,,0.01,VWS V14.01,2013-02-17 20:56:00,
2013-02-17 14:01:00,34.3,30.0,30.01,South,185,12.0,18.0,84,0.00,,,0.01,VPLive 1.2.5.27,2013-02-17 21:01:00,
2013-02-17 14:06:00,33.8,29.5,30.01,South,191,7.0,16.0,84,0.00,,,0.01,VWS V14.01,2013-02-17 21:06:00,
2013-02-17 14:11:00,33.5,29.5,30.01,South,190,10.0,16.0,85,0.00,,,0.01,VWS V14.01,2013-02-17 21:11:00,
2013-02-17 14:16:00,33.6,29.6,30.01,SSW,205,9.0,16.0,85,0.00,,,0.01,VWS V14.01,2013-02-17 21:16:00,
2013-02-17 14:21:00,33.9,29.6,30.01,South,184,11.0,16.0,84,0.00,,,0.01,VWS V14.01,2013-02-17 21:21:00,
2013-02-17 14:26:00,34.3,29.4,30.01,SSE,150,5.0,16.0,82,0.00,,,0.01,VWS V14.01,2013-02-17 21:26:00,
2013-02-17 14:31:00,34.4,29.2,30.01,South,191,7.0,16.0,81,0.00,,,0.01,VWS V14.01,2013-02-17 21:31:00,
2013-02-17 14:36:00,34.8,29.3,30.01,SSW,193,14.0,16.0,80,0.00,,,0.01,VWS V14.01,2013-02-17 21:36:00,
2013-02-17 14:41:00,34.9,29.1,30.01,SSW,192,6.0,16.0,79,0.00,,,0.01,VWS V14.01,2013-02-17 21:41:00,
2013-02-17 14:46:00,35.0,28.9,30.01,SSW,209,9.0,16.0,78,0.00,,,0.01,VWS V14.01,2013-02-17 21:46:00,
2013-02-17 14:51:00,34.8,28.6,30.02,SSW,207,17.0,18.0,78,0.00,,,0.01,VWS V14.01,2013-02-17 21:51:00,
2013-02-17 14:56:00,34.4,28.6,30.02,SW,216,13.0,18.0,79,0.00,,,0.01,VWS V14.01,2013-02-17 21:56:00,
2013-02-17 15:01:00,34.4,28.9,30.02,SW,217,15.0,18.0,80,0.00,,,0.01,VWS V14.01,2013-02-17 22:01:00,
2013-02-17 15:06:00,33.9,29.0,30.02,SSW,200,15.0,15.0,82,0.00,,,0.01,VWS V14.01,2013-02-17 22:06:00,
2013-02-17 15:11:00,33.4,29.1,30.02,SSW,196,14.0,17.0,84,0.00,,,0.01,VWS V14.01,2013-02-17 22:11:00,
2013-02-17 15:16:00,32.9,29.2,30.03,SSW,200,11.0,17.0,86,0.00,,,0.01,VWS V14.01,2013-02-17 22:16:00,
2013-02-17 15:21:00,32.8,29.1,30.03,SSW,198,9.0,17.0,86,0.00,,,0.01,VWS V14.01,2013-02-17 22:21:00,
2013-02-17 15:26:00,32.9,28.9,30.03,South,188,13.0,17.0,85,0.00,,,0.01,VWS V14.01,2013-02-17 22:26:00,
2013-02-17 15:31:00,33.0,29.0,30.03,South,184,8.0,17.0,85,0.00,,,0.01,VWS V14.01,2013-02-17 22:31:00,
2013-02-17 15:36:00,33.1,28.8,30.03,SSW,195,8.0,14.0,84,0.00,,,0.01,VWS V14.01,2013-02-17 22:36:00,
2013-02-17 15:41:00,33.0,29.0,30.03,SW,219,9.0,14.0,85,0.00,,,0.01,VWS V14.01,2013-02-17 22:41:00,
2013-02-17 15:46:00,32.6,28.6,30.03,SSW,195,11.0,19.0,85,0.00,,,0.01,VWS V14.01,2013-02-17 22:46:00,
2013-02-17 15:51:00,32.3,28.9,30.04,South,175,10.0,19.0,87,0.00,,,0.01,VWS V14.01,2013-02-17 22:51:00,
2013-02-17 15:56:00,32.0,28.9,30.04,SSW,193,10.0,19.0,88,0.00,,,0.01,VWS V14.01,2013-02-17 22:56:00,
2013-02-17 16:01:00,31.8,28.9,30.04,South,186,9.0,19.0,89,0.00,,,0.01,VWS V14.01,2013-02-17 23:01:00,
2013-02-17 16:06:00,32.0,28.9,30.04,SSW,195,7.0,12.0,88,0.00,,,0.01,VWS V14.01,2013-02-17 23:06:00,
2013-02-17 16:12:00,32.4,29.2,30.03,South,180,12.0,15.0,88,0.00,,,0.01,VWS V14.01,2013-02-17 23:12:00,
2013-02-17 16:17:00,32.9,29.2,30.04,South,186,14.0,15.0,86,0.00,,,0.01,VWS V14.01,2013-02-17 23:17:00,
2013-02-17 16:22:00,33.5,28.9,30.04,SSE,168,10.0,16.0,83,0.00,,,0.01,VWS V14.01,2013-02-17 23:22:00,
2013-02-17 16:27:00,33.9,28.7,30.04,South,188,16.0,19.0,81,0.00,,,0.01,VWS V14.01,2013-02-17 23:27:00,
2013-02-17 16:32:00,33.5,28.6,30.04,SSW,194,15.0,16.0,82,0.00,,,0.01,VWS V14.01,2013-02-17 23:32:00,
2013-02-17 16:37:00,32.6,28.3,30.05,West,261,11.0,25.0,84,0.00,,,0.01,VWS V14.01,2013-02-17 23:37:00,
2013-02-17 16:42:00,33.0,28.7,30.05,South,190,7.0,25.0,84,0.00,,,0.01,VWS V14.01,2013-02-17 23:42:00,
2013-02-17 16:48:00,33.8,29.5,30.05,SSW,211,6.0,12.0,84,0.00,,,0.01,VPLive 1.2.5.27,2013-02-17 23:48:00,
2013-02-17 16:53:00,34.4,30.1,30.04,SSE,154,5.0,25.0,84,0.00,,,0.01,VWS V14.01,2013-02-17 23:53:00,
2013-02-17 16:58:00,34.7,28.9,30.04,South,170,7.0,12.0,79,0.00,,,0.01,VPLive 1.2.5.27,2013-02-17 23:58:00,
2013-02-17 17:03:00,34.9,28.8,30.05,SSE,163,8.0,10.0,78,0.00,,,0.01,VWS V14.01,2013-02-18 00:03:00,
2013-02-17 17:08:00,34.7,28.5,30.05,South,176,5.0,11.0,78,0.00,,,0.01,VPLive 1.2.5.27,2013-02-18 00:08:00,
2013-02-17 17:13:00,34.3,27.5,30.05,SSW,200,12.0,13.0,76,0.00,,,0.01,VWS V14.01,2013-02-18 00:13:00,
2013-02-17 17:19:00,34.1,27.3,30.05,South,191,6.0,14.0,76,0.00,,,0.01,VWS V14.01,2013-02-18 00:19:00,
2013-02-17 17:24:00,34.1,27.3,30.05,South,181,7.0,10.0,76,0.00,,,0.01,VPLive 1.2.5.27,2013-02-18 00:24:00,
2013-02-17 17:30:00,34.4,27.3,30.06,SW,215,7.0,14.0,75,0.00,,,0.01,VWS V14.01,2013-02-18 00:30:00,
2013-02-17 17:35:00,34.4,27.0,30.06,SW,215,3.0,6.0,74,0.00,,,0.01,VWS V14.01,2013-02-18 00:35:00,
2013-02-17 17:41:00,33.9,27.1,30.06,South,181,5.0,8.0,76,0.00,,,0.01,VPLive 1.2.5.27,2013-02-18 00:41:00,
2013-02-17 17:46:00,33.7,27.0,30.06,South,190,3.0,10.0,76,0.00,,,0.01,VWS V14.01,2013-02-18 00:46:00,
2013-02-17 17:51:00,33.7,26.6,30.05,South,188,6.0,10.0,75,0.00,,,0.01,VWS V14.01,2013-02-18 00:51:00,
2013-02-17 17:56:00,33.8,26.4,30.06,SSW,206,0.0,10.0,74,0.00,,,0.01,VPLive 1.2.5.27,2013-02-18 00:56:00,
2013-02-17 18:01:00,33.9,25.8,30.06,SSW,198,10.0,10.0,72,0.00,,,0.01,VPLive 1.2.5.27,2013-02-18 01:01:00,
2013-02-17 18:06:00,34.2,26.1,30.06,SW,219,3.0,12.0,72,0.00,,,0.01,VPLive 1.2.5.27,2013-02-18 01:06:00,
2013-02-17 18:11:00,33.9,25.8,30.06,SSW,198,6.0,8.0,72,0.00,,,0.01,VPLive 1.2.5.27,2013-02-18 01:11:00,
2013-02-17 18:17:00,33.8,25.7,30.07,SSW,205,5.0,12.0,72,0.00,,,0.01,VWS V14.01,2013-02-18 01:17:00,
2013-02-17 18:22:00,33.6,25.5,30.07,SSW,192,5.0,12.0,72,0.00,,,0.01,VWS V14.01,2013-02-18 01:22:00,
2013-02-17 18:27:00,33.5,25.8,30.07,SSW,196,6.0,12.0,73,0.00,,,0.01,VWS V14.01,2013-02-18 01:27:00,
2013-02-17 18:32:00,33.4,25.7,30.07,SSW,195,7.0,10.0,73,0.00,,,0.01,VWS V14.01,2013-02-18 01:32:00,
2013-02-17 18:37:00,33.2,25.5,30.08,South,185,8.0,11.0,73,0.00,,,0.01,VPLive 1.2.5.27,2013-02-18 01:37:00,
2013-02-17 18:42:00,33.2,25.2,30.08,SSW,198,8.0,11.0,72,0.00,,,0.01,VWS V14.01,2013-02-18 01:42:00,
2013-02-17 18:47:00,33.2,24.8,30.08,SSW,198,10.0,11.0,71,0.00,,,0.01,VWS V14.01,2013-02-18 01:47:00,
2013-02-17 18:52:00,33.2,24.1,30.08,SSW,201,7.0,14.0,69,0.00,,,0.01,VPLive 1.2.5.27,2013-02-18 01:52:00,
2013-02-17 18:57:00,33.2,24.5,30.08,SSW,200,7.0,15.0,70,0.00,,,0.01,VWS V14.01,2013-02-18 01:57:00,
2013-02-17 19:03:00,33.0,24.0,30.08,SSW,206,6.0,12.0,69,0.00,,,0.01,VWS V14.01,2013-02-18 02:03:00,
2013-02-17 19:08:00,33.0,24.3,30.08,SSW,211,6.0,12.0,70,0.00,,,0.01,VWS V14.01,2013-02-18 02:08:00,
2013-02-17 19:13:00,32.8,24.1,30.08,SSW,202,5.0,12.0,70,0.00,,,0.01,VWS V14.01,2013-02-18 02:13:00,
2013-02-17 19:18:00,32.5,24.1,30.08,South,176,8.0,10.0,71,0.00,,,0.01,VPLive 1.2.5.27,2013-02-18 02:18:00,
2013-02-17 19:23:00,32.4,24.4,30.09,SSW,206,4.0,12.0,72,0.00,,,0.01,VWS V14.01,2013-02-18 02:23:00,
2013-02-17 19:28:00,32.2,24.2,30.09,SSW,198,10.0,12.0,72,0.00,,,0.01,VPLive 1.2.5.27,2013-02-18 02:28:00,
2013-02-17 19:33:00,32.4,24.4,30.09,SSW,207,10.0,13.0,72,0.00,,,0.01,VWS V14.01,2013-02-18 02:33:00,
2013-02-17 19:38:00,32.3,24.3,30.09,SSW,207,13.0,14.0,72,0.00,,,0.01,VWS V14.01,2013-02-18 02:38:00,
2013-02-17 19:44:00,32.2,24.2,30.09,SSW,197,11.0,14.0,72,0.00,,,0.01,VWS V14.01,2013-02-18 02:44:00,
2013-02-17 19:49:00,32.1,24.4,30.09,SSW,205,10.0,14.0,73,0.00,,,0.01,VWS V14.01,2013-02-18 02:49:00,
2013-02-17 19:54:00,31.9,24.2,30.09,SSW,192,9.0,14.0,73,0.00,,,0.01,VWS V14.01,2013-02-18 02:54:00,
2013-02-17 19:59:00,31.8,24.5,30.09,SSW,211,7.0,14.0,74,0.00,,,0.01,VWS V14.01,2013-02-18 02:59:00,
2013-02-17 20:04:00,31.6,24.3,30.09,South,171,7.0,8.0,74,0.00,,,0.01,VWS V14.01,2013-02-18 03:04:00,
2013-02-17 20:09:00,31.7,24.0,30.09,South,178,8.0,15.0,73,0.00,,,0.01,VWS V14.01,2013-02-18 03:09:00,
2013-02-17 20:14:00,31.7,24.0,30.09,South,185,11.0,15.0,73,0.00,,,0.01,VWS V14.01,2013-02-18 03:14:00,
2013-02-17 20:19:00,31.8,24.1,30.09,SSW,198,9.0,15.0,73,0.00,,,0.01,VWS V14.01,2013-02-18 03:19:00,
2013-02-17 20:24:00,31.9,24.2,30.09,South,189,9.0,15.0,73,0.00,,,0.01,VWS V14.01,2013-02-18 03:24:00,
2013-02-17 20:29:00,31.7,24.0,30.10,SSW,203,9.0,15.0,73,0.00,,,0.01,VWS V14.01,2013-02-18 03:29:00,
2013-02-17 20:34:00,31.7,23.7,30.10,SSW,202,11.0,14.0,72,0.00,,,0.01,VWS V14.01,2013-02-18 03:34:00,
2013-02-17 20:39:00,31.7,23.7,30.10,South,184,7.0,14.0,72,0.00,,,0.01,VWS V14.01,2013-02-18 03:39:00,
2013-02-17 20:44:00,31.6,23.6,30.10,South,184,7.0,12.0,72,0.00,,,0.01,VPLive 1.2.5.27,2013-02-18 03:44:00,
2013-02-17 20:49:00,31.7,23.7,30.10,SSW,200,10.0,13.0,72,0.00,,,0.01,VPLive 1.2.5.27,2013-02-18 03:49:00,
2013-02-17 20:54:00,31.7,23.4,30.10,SSW,192,8.0,16.0,71,0.00,,,0.01,VPLive 1.2.5.27,2013-02-18 03:54:00,
2013-02-17 21:00:00,31.8,23.1,30.10,South,188,11.0,16.0,70,0.00,,,0.01,VPLive 1.2.5.27,2013-02-18 04:00:00,
2013-02-17 21:04:00,31.7,23.4,30.10,SSW,193,13.0,13.0,71,0.00,,,0.01,VWS V14.01,2013-02-18 04:04:00,
2013-02-17 21:10:00,32.0,23.3,30.10,SSW,198,15.0,16.0,70,0.00,,,0.01,VWS V14.01,2013-02-18 04:10:00,
2013-02-17 21:15:00,32.2,23.5,30.10,South,178,9.0,16.0,70,0.00,,,0.01,VWS V14.01,2013-02-18 04:15:00,
2013-02-17 21:20:00,32.3,23.6,30.10,SSW,192,12.0,18.0,70,0.00,,,0.01,VWS V14.01,2013-02-18 04:20:00,
2013-02-17 21:25:00,32.4,23.7,30.11,SSW,209,9.0,18.0,70,0.00,,,0.01,VWS V14.01,2013-02-18 04:25:00,
2013-02-17 21:30:00,32.3,23.6,30.11,South,188,8.0,18.0,70,0.00,,,0.01,VWS V14.01,2013-02-18 04:30:00,
2013-02-17 21:35:00,32.2,23.9,30.11,SSW,198,16.0,16.0,71,0.00,,,0.01,VWS V14.01,2013-02-18 04:35:00,
2013-02-17 21:40:00,32.1,23.8,30.11,SSW,202,13.0,16.0,71,0.00,,,0.01,VWS V14.01,2013-02-18 04:40:00,
2013-02-17 21:45:00,32.2,23.9,30.11,SSW,205,13.0,19.0,71,0.00,,,0.01,VWS V14.01,2013-02-18 04:45:00,
2013-02-17 21:50:00,32.2,23.9,30.11,South,186,9.0,19.0,71,0.00,,,0.01,VWS V14.01,2013-02-18 04:50:00,
2013-02-17 21:55:00,32.2,23.5,30.11,SSW,199,6.0,19.0,70,0.00,,,0.01,VWS V14.01,2013-02-18 04:55:00,
2013-02-17 22:00:00,32.2,23.8,30.11,South,173,11.0,15.0,71,0.00,,,0.01,VPLive 1.2.5.27,2013-02-18 05:00:00,
2013-02-17 22:05:00,32.2,23.5,30.12,South,189,6.0,9.0,70,0.00,,,0.01,VWS V14.01,2013-02-18 05:05:00,
2013-02-17 22:10:00,32.1,23.8,30.12,SSW,212,10.0,11.0,71,0.00,,,0.01,VWS V14.01,2013-02-18 05:10:00,
2013-02-17 22:15:00,32.1,23.8,30.12,SSW,207,13.0,16.0,71,0.00,,,0.01,VWS V14.01,2013-02-18 05:15:00,
2013-02-17 22:20:00,32.3,24.0,30.12,South,190,9.0,16.0,71,0.00,,,0.01,VWS V14.01,2013-02-18 05:20:00,
2013-02-17 22:25:00,32.3,23.6,30.12,SW,219,10.0,17.0,70,0.00,,,0.01,VWS V14.01,2013-02-18 05:25:00,
2013-02-17 22:30:00,32.2,23.9,30.12,SSW,201,8.0,17.0,71,0.00,,,0.01,VWS V14.01,2013-02-18 05:30:00,
2013-02-17 22:35:00,32.1,23.8,30.12,South,171,8.0,15.0,71,0.00,,,0.01,VWS V14.01,2013-02-18 05:35:00,
2013-02-17 22:40:00,32.0,23.7,30.12,SSW,207,9.0,15.0,71,0.00,,,0.01,VWS V14.01,2013-02-18 05:40:00,
2013-02-17 22:45:00,31.9,23.9,30.13,South,185,5.0,15.0,72,0.00,,,0.01,VWS V14.01,2013-02-18 05:45:00,
2013-02-17 22:51:00,31.8,23.8,30.13,South,189,8.0,15.0,72,0.00,,,0.01,VWS V14.01,2013-02-18 05:51:00,
2013-02-17 22:56:00,31.7,23.7,30.13,South,176,8.0,15.0,72,0.00,,,0.01,VWS V14.01,2013-02-18 05:56:00,
2013-02-17 23:01:00,31.7,23.7,30.13,SSW,211,8.0,15.0,72,0.00,,,0.01,VWS V14.01,2013-02-18 06:01:00,
2013-02-17 23:06:00,31.7,23.7,30.13,South,173,6.0,14.0,72,0.00,,,0.01,VWS V14.01,2013-02-18 06:06:00,
2013-02-17 23:11:00,31.6,23.6,30.13,SSW,208,8.0,12.0,72,0.00,,,0.01,VPLive 1.2.5.27,2013-02-18 06:11:00,
2013-02-17 23:16:00,31.7,23.7,30.13,South,190,12.0,14.0,72,0.00,,,0.01,VWS V14.01,2013-02-18 06:16:00,
2013-02-17 23:21:00,31.6,24.0,30.13,South,174,9.0,14.0,73,0.00,,,0.01,VWS V14.01,2013-02-18 06:21:00,
2013-02-17 23:27:00,31.7,23.7,30.13,South,173,12.0,14.0,72,0.00,,,0.01,VWS V14.01,2013-02-18 06:27:00,
2013-02-17 23:32:00,31.6,24.0,30.13,South,190,4.0,5.0,73,0.00,,,0.01,VWS V14.01,2013-02-18 06:32:00,
2013-02-17 23:37:00,31.6,23.9,30.13,SSW,211,8.0,10.0,73,0.00,,,0.01,VPLive 1.2.5.27,2013-02-18 06:37:00,
2013-02-17 23:42:00,31.5,23.9,30.14,SSW,199,9.0,9.0,73,0.00,,,0.01,VWS V14.01,2013-02-18 06:42:00,
2013-02-17 23:47:00,31.6,23.9,30.14,South,179,6.0,10.0,73,0.00,,,0.01,VPLive 1.2.5.27,2013-02-18 06:47:00,
2013-02-17 23:52:00,31.6,24.0,30.13,South,179,8.0,11.0,73,0.00,,,0.01,VWS V14.01,2013-02-18 06:52:00,
2013-02-17 23:57:00,31.6,23.6,30.14,South,187,5.0,11.0,72,0.00,,,0.01,VWS V14.01,2013-02-18 06:57:00,